Notices

What's New in latest release on October 27, 2021:

- Updated email addresses on the CDO Contacts page.

- Updated station operator of Churchill Falls (Climate ID: 8501130).

- Radar site name change from Jimmy Lake to Cold Lake on October 27, 2021.

Hourly Data Report for September 22, 2004

SHERBROOKE A
QUEBEC

45°26'00.000" N
71°41'00.000" W
241.40 m
7028124
71610
YSC

Download Data

Hourly Data (September 2004)
Hourly Data Report for September 22, 2004
TIME
LST
Temp Definition
°C
Dew Point Definition
°C
Rel Hum Definition
%
Precip. Amount Definition
mm

Wind Dir Definition
10's deg

Wind Spd Definition
km/h
Visibility Definition
km
Stn Press Definition
kPa
Hmdx Definition


Wind Chill Definition


Weather Definition


00:00 12.8 12.0 95   28 6 15.0 99.09      
01:00 12.7 11.6 93     0 15.0 99.07      
02:00 10.4 9.8 96   22 4 11.3 99.03      
03:00 11.1 10.6 97   22 4 15.0 99.00      
04:00 10.4 10.0 97   14 4 9.7 99.00      
05:00 11.1 10.5 96     0 15.0 98.99      
06:00 10.7 10.1 96     0 9.7 99.04      
07:00 12.7 11.9 95     0 24.1 99.07     Mainly Clear
08:00 15.8 12.9 83   25 7 24.1 99.05     Mainly Clear
09:00 17.8 13.0 73   25 11 24.1 99.03     Mainly Clear
10:00 19.7 13.4 67   24 9 24.1 98.99     Mainly Clear
11:00 21.5 14.4 64   23 19 24.1 98.91 25   Mainly Clear
12:00 22.2 13.8 59   21 15 24.1 98.84 25   Mainly Clear
13:00 23.2 14.7 59   29 24 24.1 98.86 27   Mainly Clear
14:00 22.7 14.1 58   28 22 24.1 98.87 26   Mainly Clear
15:00 22.9 13.9 57   27 17 24.1 98.84 26   Mainly Clear
16:00 21.5 14.8 66   28 13 24.1 98.85 25   Mostly Cloudy
17:00 20.9 15.2 70   27 13 15.0 98.88 25    
18:00 19.7 15.5 77   28 7 15.0 98.92      
19:00 19.8 15.5 76   26 9 15.0 98.95      
20:00 19.5 15.1 76   32 9 15.0 99.05      
21:00 17.6 14.4 82   29 4 15.0 99.09      
22:00 17.4 14.3 82   32 9 15.0 99.14      
23:00 15.9 13.9 88   30 11 15.0 99.11      

Notes on Data Quality.

Legend

  • E = Estimated
  • M = Missing
  • NA = Not Available*
  • [empty] = Indicates an unobserved value
Date modified: